Hourly Data Report for April 04, 2016

All times are specified in Local Standard Time (LST). Add 1 hour to adjust for Daylight Saving Time where and when it is observed.

EMERSON AUTO
MANITOBA

49°00'00.000" N
97°14'15.000" W
242.00 m
5020881
71560
WEX

Download Data

Hourly Data (April 2016)
Hourly Data Report for April 4, 2016
Temp Definition
°C
Dew Point Temp Definition
°C
Rel Hum Definition
%
Wind Dir Definition
10's deg

Wind Spd Definition
km/h
Visibility Definition
km
Stn Press Definition
kPa
Hmdx Definition


Wind Chill Definition


Weather Definition


TIME
00:00 -7.5 -12.1 70 1 12   99.37   -13 LegendNANA
01:00 -8.2 -12.5 71 36 13   99.42   -14 LegendNANA
02:00 -8.6 -12.9 71 1 14   99.48   -15 LegendNANA
03:00 -9.2 -12.1 79 36 10   99.53   -14 LegendNANA
04:00 -10.0 -12.3 83 36 8   99.58   -14 LegendNANA
05:00 -10.1 -12.4 83 36 10   99.65   -15 LegendNANA
06:00 -10.6 -12.3 88 33 9   99.73   -16 LegendNANA
07:00 -9.1 -12.1 79 35 14   99.79   -15 LegendNANA
08:00 -7.7 -12.0 71 34 16   99.88   -14 LegendNANA
09:00 -6.5 -12.8 61 33 16   99.90   -13 LegendNANA
10:00 -4.9 -12.9 53 34 13   99.91   -10 LegendNANA
11:00 -3.2 -12.2 50 36 14   99.91   -8 LegendNANA
12:00 -2.8 -12.8 46 33 15   99.87   -8 LegendNANA
13:00 -1.4 -11.1 48 32 13   99.83   -6 LegendNANA
14:00 -0.5 -10.8 46 32 13   99.78   -5 LegendNANA
15:00 0.3 -9.5 48 34 12   99.75     LegendNANA
16:00 0.3 -11.1 42 34 8   99.70     LegendNANA
17:00 0.4 -11.4 41 35 2   99.65     LegendNANA
18:00 0.5 -11.2 41 32 3   99.63     LegendNANA
19:00 -1.0 -10.9 47   0   99.57     LegendNANA
20:00 -1.8 -9.8 54 12 7   99.54   -4 LegendNANA
21:00 -2.7 -8.8 63 12 8   99.51   -6 LegendNANA
22:00 -3.5 -9.1 65 11 11   99.44   -8 LegendNANA
23:00 -3.0 -9.2 63 15 11   99.40   -7 LegendNANA

Notes on Data Quality.

Legend

  • E = Estimated
  • M = Missing
  • NA = Not Available
  • ‡ = Partner data that is not subject to review by the National Climate Archives
Date modified: